2022-074H (52951 NORAD) Tracking and Keplerian Element Data

This shows tracking and keplerian element data for the satellite.

Feedback or suggestion? Click here.




ElementValue
Catalog52951
Name2022-074H
Epoch Orbit146
Epoch Day192.90319614
Epoch Year2022
RAAN65.5518
Inclination44.9862
Eccentricity0.0003657
Argument of Perigee308.9524
Mean Anonmoly51.1001
Mean Motion15.23552788
Decay Rate0.0001248
L11 52951U 22074H 22192.90319614 .00012480 00000+0 52346-3 0 9993
L22 52951 44.9862 65.5518 0003657 308.9524 51.1001 15.23552788 1464

Live tracking and technical data element details for 2022-074H (NORAD 52951). 2022-074H can be tracked NOW for your location showing map with azimuth and elevation plus other details from your city location.

Track the satellite on the map from your city or location and see movement details for azimuth, elevation, latitude, longitude, range, height, and movement on the map or in text.







IsCatalogInMostPopularTable: catalog: 52951, numindb: 8
Update: records affected: 1



GetName: 52951 2022-074H

Hit Count: updated at: Sun, 25 Sep 2022 07:19:45 GMT